Time,TemperatureF,DewpointF,PressureIn,WindDirection,WindDirectionDegrees,WindSpeedMPH,WindSpeedGustMPH,Humidity,HourlyPrecipIn,Conditions,Clouds,dailyrainin,SolarRadiationWatts/m^2,SoftwareType,DateUTC
2013-04-05 00:01:00,30.0,30.0,-100.00,NE,52,4.0,5.0,100,0.00,,,0.00,0.000000,,2013-04-05 04:01:00,
2013-04-05 00:33:00,30.0,30.0,-100.00,NE,52,4.0,5.0,100,0.00,,,0.00,0.000000,,2013-04-05 04:33:00,
2013-04-05 00:43:00,30.0,30.0,-100.00,NE,52,4.0,5.0,100,0.00,,,0.00,0.000000,,2013-04-05 04:43:00,
2013-04-05 00:52:00,30.0,30.0,-100.00,NE,52,4.0,5.0,100,0.00,,,0.00,0.000000,,2013-04-05 04:52:00,
2013-04-05 01:01:00,31.0,31.0,-100.00,NE,56,3.0,5.0,100,0.00,,,0.00,0.000000,,2013-04-05 05:01:00,
2013-04-05 01:32:00,31.0,31.0,-100.00,NE,56,3.0,5.0,100,0.00,,,0.00,0.000000,,2013-04-05 05:32:00,
2013-04-05 01:42:00,31.0,31.0,-100.00,NE,56,3.0,5.0,100,0.00,,,0.00,0.000000,,2013-04-05 05:42:00,
2013-04-05 01:53:00,31.0,31.0,-100.00,NE,56,3.0,5.0,100,0.00,,,0.00,0.000000,,2013-04-05 05:53:00,
2013-04-05 03:01:00,32.0,32.0,-100.00,ENE,60,3.0,6.0,100,-99.99,,,0.00,0.000000,,2013-04-05 07:01:00,
2013-04-05 03:23:00,32.0,32.0,-100.00,ENE,60,3.0,6.0,100,-99.99,,,0.00,0.000000,,2013-04-05 07:23:00,
2013-04-05 03:32:00,32.0,32.0,-100.00,ENE,60,3.0,6.0,100,-99.99,,,0.00,0.000000,,2013-04-05 07:32:00,
2013-04-05 03:42:00,32.0,32.0,-100.00,ENE,60,3.0,6.0,100,-99.99,,,0.00,0.000000,,2013-04-05 07:42:00,
2013-04-05 03:53:00,32.0,32.0,-100.00,ENE,60,3.0,6.0,100,-99.99,,,0.00,0.000000,,2013-04-05 07:53:00,
2013-04-05 04:01:00,32.0,32.0,-100.00,NE,42,4.0,5.0,100,0.00,,,0.00,0.000000,,2013-04-05 08:01:00,
2013-04-05 04:23:00,32.0,32.0,-100.00,NE,42,4.0,5.0,100,0.00,,,0.00,0.000000,,2013-04-05 08:23:00,
2013-04-05 04:33:00,32.0,32.0,-100.00,NE,42,4.0,5.0,100,0.00,,,0.00,0.000000,,2013-04-05 08:33:00,
2013-04-05 04:43:00,32.0,32.0,-100.00,NE,42,4.0,5.0,100,0.00,,,0.00,0.000000,,2013-04-05 08:43:00,
2013-04-05 04:52:00,32.0,32.0,-100.00,NE,42,4.0,5.0,100,0.00,,,0.00,0.000000,,2013-04-05 08:52:00,
2013-04-05 06:01:00,34.0,34.0,-100.00,NNE,32,3.0,5.0,100,-99.99,,,0.00,0.000000,,2013-04-05 10:01:00,
2013-04-05 06:23:00,34.0,34.0,-100.00,NNE,32,3.0,5.0,100,-99.99,,,0.00,0.000000,,2013-04-05 10:23:00,
2013-04-05 06:33:00,34.0,34.0,-100.00,NNE,32,3.0,5.0,100,-99.99,,,0.00,0.000000,,2013-04-05 10:33:00,
2013-04-05 06:43:00,34.0,34.0,-100.00,NNE,32,3.0,5.0,100,-99.99,,,0.00,0.000000,,2013-04-05 10:43:00,
2013-04-05 06:53:00,34.0,34.0,-100.00,NNE,32,3.0,5.0,100,-99.99,,,0.00,0.000000,,2013-04-05 10:53:00,
2013-04-05 07:01:00,35.0,35.0,-100.00,NE,34,5.0,7.0,100,0.01,,,0.01,0.000000,,2013-04-05 11:01:00,
2013-04-05 07:33:00,35.0,35.0,-100.00,NE,34,5.0,7.0,100,0.01,,,0.01,0.000000,,2013-04-05 11:33:00,
2013-04-05 07:42:00,35.0,35.0,-100.00,NE,34,5.0,7.0,100,0.01,,,0.01,0.000000,,2013-04-05 11:42:00,
2013-04-05 07:52:00,35.0,35.0,-100.00,NE,34,5.0,7.0,100,0.01,,,0.01,0.000000,,2013-04-05 11:52:00,
2013-04-05 08:01:00,36.0,33.0,-100.00,NE,42,6.0,9.0,90,0.01,,,0.02,26.000000,,2013-04-05 12:01:00,
2013-04-05 08:32:00,36.0,33.0,-100.00,NE,42,6.0,9.0,90,0.01,,,0.02,26.000000,,2013-04-05 12:32:00,
2013-04-05 08:42:00,36.0,33.0,-100.00,NE,42,6.0,9.0,90,0.01,,,0.02,26.000000,,2013-04-05 12:42:00,
2013-04-05 08:52:00,36.0,33.0,-100.00,NE,42,6.0,9.0,90,0.01,,,0.02,26.000000,,2013-04-05 12:52:00,
2013-04-05 09:01:00,38.0,31.0,-100.00,NE,39,8.0,13.0,75,0.13,,,0.15,233.000000,,2013-04-05 13:01:00,
2013-04-05 09:23:00,38.0,31.0,-100.00,NE,39,8.0,13.0,75,0.13,,,0.15,233.000000,,2013-04-05 13:23:00,
2013-04-05 09:32:00,38.0,31.0,-100.00,NE,39,8.0,13.0,75,0.13,,,0.15,233.000000,,2013-04-05 13:32:00,
2013-04-05 09:43:00,38.0,31.0,-100.00,NE,39,8.0,13.0,75,0.13,,,0.15,233.000000,,2013-04-05 13:43:00,
2013-04-05 09:53:00,38.0,31.0,-100.00,NE,39,8.0,13.0,75,0.13,,,0.15,233.000000,,2013-04-05 13:53:00,
2013-04-05 10:01:00,42.0,30.0,-100.00,NE,43,6.0,10.0,63,0.19,,,0.34,557.000000,,2013-04-05 14:01:00,
2013-04-05 10:23:00,42.0,30.0,-100.00,NE,43,6.0,10.0,63,0.19,,,0.34,557.000000,,2013-04-05 14:23:00,
2013-04-05 10:37:00,42.0,30.0,-100.00,NE,43,6.0,10.0,63,0.19,,,0.34,557.000000,,2013-04-05 14:37:00,
2013-04-05 10:43:00,42.0,30.0,-100.00,NE,43,6.0,10.0,63,0.19,,,0.34,557.000000,,2013-04-05 14:43:00,
2013-04-05 10:54:00,42.0,30.0,-100.00,NE,43,6.0,10.0,63,0.19,,,0.34,557.000000,,2013-04-05 14:54:00,
2013-04-05 11:01:00,42.0,27.0,-100.00,NNE,18,4.0,9.0,55,0.08,,,0.42,647.000000,,2013-04-05 15:01:00,
2013-04-05 11:34:00,42.0,27.0,-100.00,NNE,18,4.0,9.0,55,0.08,,,0.42,647.000000,,2013-04-05 15:34:00,
2013-04-05 11:43:00,42.0,27.0,-100.00,NNE,18,4.0,9.0,55,0.08,,,0.42,647.000000,,2013-04-05 15:43:00,
2013-04-05 11:55:00,42.0,27.0,-100.00,NNE,18,4.0,9.0,55,0.08,,,0.42,647.000000,,2013-04-05 15:55:00,
2013-04-05 12:01:00,45.0,25.0,-100.00,NE,37,7.0,12.0,46,0.00,,,0.42,933.000000,,2013-04-05 16:01:00,
2013-04-05 12:33:00,45.0,25.0,-100.00,NE,37,7.0,12.0,46,0.00,,,0.42,933.000000,,2013-04-05 16:33:00,
2013-04-05 12:43:00,45.0,25.0,-100.00,NE,37,7.0,12.0,46,0.00,,,0.42,933.000000,,2013-04-05 16:43:00,
2013-04-05 12:53:00,45.0,25.0,-100.00,NE,37,7.0,12.0,46,0.00,,,0.42,933.000000,,2013-04-05 16:53:00,
2013-04-05 13:01:00,48.0,25.0,-100.00,NE,44,7.0,12.0,41,0.00,,,0.42,1036.000000,,2013-04-05 17:01:00,
2013-04-05 13:33:00,48.0,25.0,-100.00,NE,44,7.0,12.0,41,0.00,,,0.42,1036.000000,,2013-04-05 17:33:00,
2013-04-05 13:46:00,48.0,25.0,-100.00,NE,44,7.0,12.0,41,0.00,,,0.42,1036.000000,,2013-04-05 17:46:00,
2013-04-05 13:53:00,48.0,25.0,-100.00,NE,44,7.0,12.0,41,0.00,,,0.42,1036.000000,,2013-04-05 17:53:00,
2013-04-05 14:01:00,51.0,23.0,-100.00,NNE,24,6.0,12.0,33,0.00,,,0.42,1070.000000,,2013-04-05 18:01:00,
2013-04-05 14:34:00,51.0,23.0,-100.00,NNE,24,6.0,12.0,33,0.00,,,0.42,1070.000000,,2013-04-05 18:34:00,
2013-04-05 14:43:00,51.0,23.0,-100.00,NNE,24,6.0,12.0,33,0.00,,,0.42,1070.000000,,2013-04-05 18:43:00,
2013-04-05 14:53:00,51.0,23.0,-100.00,NNE,24,6.0,12.0,33,0.00,,,0.42,1070.000000,,2013-04-05 18:53:00,
2013-04-05 15:01:00,53.0,26.0,-100.00,NNE,22,6.0,16.0,35,0.00,,,0.42,1038.000000,,2013-04-05 19:01:00,
2013-04-05 15:33:00,53.0,26.0,-100.00,NNE,22,6.0,16.0,35,0.00,,,0.42,1038.000000,,2013-04-05 19:33:00,
2013-04-05 15:43:00,53.0,26.0,-100.00,NNE,22,6.0,16.0,35,0.00,,,0.42,1038.000000,,2013-04-05 19:43:00,
2013-04-05 15:53:00,53.0,26.0,-100.00,NNE,22,6.0,16.0,35,0.00,,,0.42,1038.000000,,2013-04-05 19:53:00,
2013-04-05 16:01:00,54.0,27.0,-100.00,NNE,31,6.0,17.0,35,0.00,,,0.42,934.000000,,2013-04-05 20:01:00,
2013-04-05 16:33:00,54.0,27.0,-100.00,NNE,31,6.0,17.0,35,0.00,,,0.42,934.000000,,2013-04-05 20:33:00,
2013-04-05 16:43:00,54.0,27.0,-100.00,NNE,31,6.0,17.0,35,0.00,,,0.42,934.000000,,2013-04-05 20:43:00,
2013-04-05 16:53:00,54.0,27.0,-100.00,NNE,31,6.0,17.0,35,0.00,,,0.42,934.000000,,2013-04-05 20:53:00,
2013-04-05 17:01:00,53.0,23.0,-100.00,NNE,30,6.0,16.0,31,0.00,,,0.42,767.000000,,2013-04-05 21:01:00,
2013-04-05 17:34:00,53.0,23.0,-100.00,NNE,30,6.0,16.0,31,0.00,,,0.42,767.000000,,2013-04-05 21:34:00,
2013-04-05 17:44:00,53.0,23.0,-100.00,NNE,30,6.0,16.0,31,0.00,,,0.42,767.000000,,2013-04-05 21:44:00,
2013-04-05 17:55:00,53.0,23.0,-100.00,NNE,30,6.0,16.0,31,0.00,,,0.42,767.000000,,2013-04-05 21:55:00,
2013-04-05 18:01:00,51.0,22.0,-100.00,NNE,31,7.0,15.0,32,0.00,,,0.42,532.000000,,2013-04-05 22:01:00,
2013-04-05 18:23:00,51.0,22.0,-100.00,NNE,31,7.0,15.0,32,0.00,,,0.42,532.000000,,2013-04-05 22:23:00,
2013-04-05 18:33:00,51.0,22.0,-100.00,NNE,31,7.0,15.0,32,0.00,,,0.42,532.000000,,2013-04-05 22:33:00,
2013-04-05 18:44:00,51.0,22.0,-100.00,NNE,31,7.0,15.0,32,0.00,,,0.42,532.000000,,2013-04-05 22:44:00,
2013-04-05 18:53:00,51.0,22.0,-100.00,NNE,31,7.0,15.0,32,0.00,,,0.42,532.000000,,2013-04-05 22:53:00,
2013-04-05 19:01:00,50.0,21.0,-100.00,NNE,24,7.0,16.0,32,0.00,,,0.42,273.000000,,2013-04-05 23:01:00,
2013-04-05 19:33:00,50.0,21.0,-100.00,NNE,24,7.0,16.0,32,0.00,,,0.42,273.000000,,2013-04-05 23:33:00,
2013-04-05 19:43:00,50.0,21.0,-100.00,NNE,24,7.0,16.0,32,0.00,,,0.42,273.000000,,2013-04-05 23:43:00,
2013-04-05 19:53:00,50.0,21.0,-100.00,NNE,24,7.0,16.0,32,0.00,,,0.42,273.000000,,2013-04-05 23:53:00,
2013-04-05 20:01:00,46.0,21.0,-100.00,NNE,26,4.0,15.0,36,0.00,,,0.42,51.000000,,2013-04-06 00:01:00,
2013-04-05 20:33:00,46.0,21.0,-100.00,NNE,26,4.0,15.0,36,0.00,,,0.42,51.000000,,2013-04-06 00:33:00,
2013-04-05 20:43:00,46.0,21.0,-100.00,NNE,26,4.0,15.0,36,0.00,,,0.42,51.000000,,2013-04-06 00:43:00,
2013-04-05 20:53:00,46.0,21.0,-100.00,NNE,26,4.0,15.0,36,0.00,,,0.42,51.000000,,2013-04-06 00:53:00,
2013-04-05 21:01:00,46.0,21.0,-100.00,NNW,328,5.0,10.0,37,0.00,,,0.42,0.000000,,2013-04-06 01:01:00,
2013-04-05 21:23:00,46.0,21.0,-100.00,NNW,328,5.0,10.0,37,0.00,,,0.42,0.000000,,2013-04-06 01:23:00,
2013-04-05 21:33:00,46.0,21.0,-100.00,NNW,328,5.0,10.0,37,0.00,,,0.42,0.000000,,2013-04-06 01:33:00,
2013-04-05 21:43:00,46.0,21.0,-100.00,NNW,328,5.0,10.0,37,0.00,,,0.42,0.000000,,2013-04-06 01:43:00,
2013-04-05 21:53:00,46.0,21.0,-100.00,NNW,328,5.0,10.0,37,0.00,,,0.42,0.000000,,2013-04-06 01:53:00,
2013-04-05 22:01:00,44.0,21.0,-100.00,NNE,23,4.0,7.0,39,0.00,,,0.42,0.000000,,2013-04-06 02:01:00,
2013-04-05 22:23:00,44.0,21.0,-100.00,NNE,23,4.0,7.0,39,0.00,,,0.42,0.000000,,2013-04-06 02:23:00,
2013-04-05 22:33:00,44.0,21.0,-100.00,NNE,23,4.0,7.0,39,0.00,,,0.42,0.000000,,2013-04-06 02:33:00,
2013-04-05 22:43:00,44.0,21.0,-100.00,NNE,23,4.0,7.0,39,0.00,,,0.42,0.000000,,2013-04-06 02:43:00,
2013-04-05 22:53:00,44.0,21.0,-100.00,NNE,23,4.0,7.0,39,0.00,,,0.42,0.000000,,2013-04-06 02:53:00,
2013-04-05 23:01:00,40.0,23.0,-100.00,NE,43,5.0,7.0,50,0.00,,,0.42,0.000000,,2013-04-06 03:01:00,
2013-04-05 23:34:00,40.0,23.0,-100.00,NE,43,5.0,7.0,50,0.00,,,0.42,0.000000,,2013-04-06 03:34:00,
2013-04-05 23:43:00,40.0,23.0,-100.00,NE,43,5.0,7.0,50,0.00,,,0.42,0.000000,,2013-04-06 03:43:00,
2013-04-05 23:55:00,40.0,23.0,-100.00,NE,43,5.0,7.0,50,0.00,,,0.42,0.000000,,2013-04-06 03:55:00,